FW9519 Weather Reports


time (UTC)temp
C
wind
direction
speed
KPH
gust
KPH
rain 1hr
cm
rain 24hr
cm
rain mn
cm
humidity
%
barometer
mb
20260505181530 20 18 1.6 14.5 0.00 0.00 0.00 61 1015.8
20260505180104 20 4 1.6 12.9 0.00 0.00 0.00 60 1015.8
20260505174607 20 16 1.6 9.7 0.00 0.00 0.00 60 1015.9
20260505173106 20 325 0.0 8.0 0.00 0.00 0.00 61 1015.8
20260505163107 18 312 1.6 16.1 0.00 0.00 0.00 64 1015.7
20260505161530 18 4 0.0 9.7 0.00 0.00 0.00 65 1015.8
20260505151532 17 290 0.0 12.9 0.00 0.00 0.00 68 1015.7
20260505150103 16 198 0.0 9.7 0.00 0.00 0.00 71 1015.6
20260505124608 11 172 1.6 6.4 0.00 0.00 0.00 90 1014.6
20260505121605 11 200 1.6 6.4 0.00 0.00 0.00 91 1014.5
20260505113029 11 164 1.6 6.4 0.00 0.00 0.00 90 1014.3
20260505111531 11 194 1.6 6.4 0.00 0.00 0.00 90 1014.3
20260505101529 12 164 1.6 6.4 0.00 0.00 0.00 88 1013.8
20260505100029 12 151 1.6 6.4 0.00 0.00 0.00 87 1013.7
20260505093032 13 157 0.0 3.2 0.00 0.00 0.00 84 1013.6
20260505084645 15 173 0.0 4.8 0.00 0.00 0.00 80 1013.2
20260505083029 15 153 0.0 4.8 0.00 0.00 0.00 79 1013.2
20260505081646 15 180 0.0 4.8 0.00 0.00 0.00 80 1013.0
20260505080031 15 147 0.0 3.2 0.00 0.00 0.00 80 1012.9
20260505074530 15 124 0.0 3.2 0.00 0.00 0.00 78 1012.9
20260505073030 15 34 0.0 1.6 0.00 0.00 0.00 76 1012.8
20260505071531 16 112 0.0 3.2 0.00 0.00 0.00 75 1012.7
20260505070040 16 117 0.0 3.2 0.00 0.00 0.00 73 1012.6
20260505064532 17 137 0.0 4.8 0.00 0.00 0.00 71 1012.4
20260505063028 17 175 0.0 1.6 0.00 0.00 0.00 70 1012.5
20260505061533 17 204 0.0 4.8 0.00 0.00 0.00 70 1012.4
20260505060030 17 190 0.0 4.8 0.00 0.00 0.00 70 1012.4
20260505054531 17 168 0.0 3.2 0.00 0.00 0.00 68 1012.3
20260505051534 18 191 0.0 3.2 0.00 0.00 0.00 64 1012.2
20260505041532 18 226 0.0 4.8 0.00 0.00 0.00 59 1011.5
20260505040043 19 164 0.0 4.8 0.00 0.00 0.00 58 1011.2
20260505034528 20 212 0.0 3.2 0.00 0.00 0.00 58 1011.0
20260505033148 20 212 0.0 4.8 0.00 0.00 0.00 58 1010.7
20260505031604 21 206 0.0 4.8 0.00 0.00 0.00 55 1010.5
20260505030032 23 268 0.0 1.6 0.00 0.00 0.00 51 1010.2
20260505024531 24 120 0.0 4.8 0.00 0.00 0.00 50 1010.0
20260505023031 25 80 0.0 3.2 0.00 0.00 0.00 49 1010.0
20260505021531 25 53 0.0 9.7 0.00 0.00 0.00 47 1009.9
20260505020106 26 232 0.0 11.3 0.00 0.00 0.00 47 1009.9
20260505014532 25 290 0.0 8.0 0.00 0.00 0.00 47 1009.8
20260505013031 25 303 3.2 14.5 0.00 0.00 0.00 46 1009.9
20260505011530 26 355 3.2 17.7 0.00 0.00 0.00 46 1009.9
20260505003031 27 6 0.0 8.0 0.00 0.00 0.00 45 1009.8
20260505001531 26 351 4.8 20.9 0.00 0.00 0.00 44 1009.7
20260505000107 27 292 4.8 14.5 0.00 0.00 0.00 43 1009.6
20260504234531 27 257 4.8 20.9 0.00 0.00 0.00 43 1009.6
20260504230027 27 308 3.2 20.9 0.00 0.00 0.00 44 1009.6
20260504224532 27 322 3.2 17.7 0.00 0.00 0.00 45 1009.8
20260504223106 27 305 6.4 19.3 0.00 0.00 0.00 45 1009.9
20260504214530 27 295 1.6 11.3 0.00 0.00 0.00 43 1010.1
20260504213030 27 356 1.6 16.1 0.00 0.00 0.00 44 1010.3
20260504211608 27 264 0.0 16.1 0.00 0.00 0.00 44 1010.3
20260504210030 27 330 1.6 9.7 0.00 0.00 0.00 44 1010.5
20260504204530 27 254 0.0 11.3 0.00 0.00 0.00 43 1010.7
20260504201529 27 17 3.2 17.7 0.00 0.00 0.00 43 1011.0
20260504200032 27 48 0.0 6.4 0.00 0.00 0.00 42 1011.2
20260504194530 27 7 0.0 8.0 0.00 0.00 0.00 44 1011.2
20260504193030 27 174 1.6 6.4 0.00 0.00 0.00 44 1011.3
20260504191528 26 353 0.0 8.0 0.00 0.00 0.00 46 1011.4
20260504184531 25 159 0.0 6.4 0.00 0.00 0.00 50 1011.6
20260504183030 24 221 0.0 6.4 0.00 0.00 0.00 51 1011.7